�������l�o���
Date,Time,MP-1(��Sv/h),MP-2(��Sv/h),MP-3(��Sv/h),MP-4(��Sv/h),MP-5(��Sv/h),MP-6(��Sv/h),MP-7(��Sv/h),MP-8(��Sv/h),����,����(m/s),���J
2023/08/08,00:00,0.553,0.838,0.509,1.030,0.753,0.330,0.584,0.539,��,7.0,��
2023/08/08,00:10,0.555,0.839,0.509,1.028,0.752,0.330,0.582,0.540,��,7.5,��
2023/08/08,00:20,0.555,0.838,0.510,1.029,0.754,0.329,0.585,0.539,��,7.4,��
2023/08/08,00:30,0.555,0.839,0.509,1.030,0.752,0.329,0.584,0.539,��,7.0,��
2023/08/08,00:40,0.553,0.841,0.510,1.028,0.754,0.330,0.584,0.538,��,6.6,��
2023/08/08,00:50,0.553,0.838,0.507,1.029,0.754,0.328,0.584,0.539,��,5.9,��
2023/08/08,01:00,0.555,0.840,0.508,1.030,0.753,0.329,0.583,0.539,��,5.6,��
2023/08/08,01:10,0.554,0.837,0.509,1.028,0.755,0.328,0.582,0.538,��,5.2,��
2023/08/08,01:20,0.556,0.839,0.510,1.030,0.754,0.329,0.584,0.540,��,6.1,��
2023/08/08,01:30,0.555,0.839,0.508,1.026,0.754,0.328,0.583,0.539,��,6.8,��
2023/08/08,01:40,0.553,0.838,0.509,1.028,0.754,0.329,0.584,0.538,��,6.1,��
2023/08/08,01:50,0.554,0.840,0.510,1.029,0.754,0.330,0.583,0.537,��,6.8,��
2023/08/08,02:00,0.554,0.838,0.509,1.032,0.754,0.328,0.585,0.541,��,6.4,��
2023/08/08,02:10,0.556,0.839,0.510,1.028,0.753,0.329,0.583,0.539,��,6.0,��
2023/08/08,02:20,0.555,0.838,0.510,1.030,0.753,0.327,0.582,0.539,��,6.0,��
2023/08/08,02:30,0.554,0.838,0.508,1.030,0.752,0.329,0.583,0.540,��,5.0,��
2023/08/08,02:40,0.553,0.839,0.510,1.029,0.755,0.328,0.583,0.540,��,4.4,��
2023/08/08,02:50,0.554,0.837,0.509,1.031,0.755,0.329,0.585,0.538,��,4.9,��
2023/08/08,03:00,0.553,0.837,0.509,1.030,0.753,0.329,0.582,0.538,��,4.7,��
2023/08/08,03:10,0.554,0.840,0.509,1.031,0.753,0.329,0.585,0.539,��,4.7,��
2023/08/08,03:20,0.552,0.840,0.510,1.028,0.754,0.329,0.584,0.540,��,4.3,��
2023/08/08,03:30,0.554,0.839,0.510,1.031,0.752,0.329,0.584,0.539,��,3.3,��
2023/08/08,03:40,0.552,0.838,0.509,1.029,0.754,0.328,0.584,0.539,��,3.3,��
2023/08/08,03:50,0.555,0.840,0.509,1.031,0.754,0.329,0.582,0.540,��쓌,2.8,�L
2023/08/08,04:00,0.555,0.838,0.508,1.030,0.753,0.328,0.585,0.540,�쓌,2.2,�L
2023/08/08,04:10,0.552,0.838,0.508,1.031,0.756,0.328,0.583,0.536,��쓌,3.1,�L
2023/08/08,04:20,0.553,0.838,0.511,1.030,0.755,0.328,0.583,0.539,��쓌,3.6,�L
2023/08/08,04:30,0.553,0.835,0.508,1.030,0.753,0.328,0.582,0.539,�쓌,2.5,�L
2023/08/08,04:40,0.553,0.838,0.510,1.031,0.753,0.328,0.583,0.538,��쓌,1.4,�L
2023/08/08,04:50,0.551,0.834,0.508,1.029,0.754,0.328,0.583,0.538,��쓌,2.3,�L
2023/08/08,05:00,0.550,0.834,0.508,1.031,0.755,0.329,0.582,0.538,�쓌,1.9,�L
2023/08/08,05:10,0.551,0.835,0.509,1.032,0.755,0.329,0.582,0.538,�쓌,2.0,�L
2023/08/08,05:20,0.552,0.835,0.507,1.029,0.753,0.328,0.583,0.541,��쓌,2.6,��
2023/08/08,05:30,0.551,0.837,0.508,1.030,0.752,0.328,0.584,0.538,�쓌,1.5,�L
2023/08/08,05:40,0.551,0.836,0.509,1.029,0.754,0.328,0.584,0.539,-,CALM,�L
2023/08/08,05:50,0.551,0.835,0.508,1.031,0.756,0.329,0.583,0.540,�쓌,1.2,��
2023/08/08,06:00,0.551,0.836,0.508,1.031,0.752,0.328,0.583,0.541,-,CALM,�L
2023/08/08,06:10,0.551,0.834,0.509,1.028,0.753,0.328,0.582,0.539,���쓌,2.0,��
2023/08/08,06:20,0.553,0.835,0.509,1.033,0.752,0.328,0.584,0.537,���쓌,1.5,�L
2023/08/08,06:30,0.552,0.835,0.508,1.030,0.752,0.330,0.581,0.539,���쓌,2.3,�L
2023/08/08,06:40,0.545,0.827,0.502,1.017,0.743,0.328,0.582,0.536,���쓌,4.7,�L
2023/08/08,06:50,0.544,0.823,0.498,1.008,0.732,0.328,0.580,0.538,���쓌,4.7,�L
2023/08/08,07:00,0.544,0.824,0.499,1.010,0.733,0.327,0.583,0.537,�쓌,3.0,��
2023/08/08,07:10,0.543,0.824,0.499,1.010,0.733,0.326,0.585,0.537,�쓌,3.0,��
2023/08/08,07:20,0.544,0.824,0.499,1.009,0.733,0.327,0.583,0.538,�쓌,3.1,��
2023/08/08,07:30,0.543,0.825,0.499,1.010,0.733,0.327,0.582,0.537,�쓌,3.2,��
2023/08/08,07:40,0.544,0.824,0.497,1.009,0.733,0.325,0.581,0.538,�쓌,3.3,��
2023/08/08,07:50,0.544,0.826,0.499,1.009,0.733,0.328,0.584,0.538,�쓌,4.6,�L
2023/08/08,08:00,0.543,0.821,0.496,1.010,0.736,0.327,0.581,0.537,���쓌,3.6,�L
2023/08/08,08:10,0.544,0.817,0.497,1.012,0.735,0.326,0.579,0.535,�쓌,3.4,�L
2023/08/08,08:20,0.542,0.817,0.493,1.010,0.734,0.324,0.582,0.535,�쓌,3.6,�L
2023/08/08,08:30,0.542,0.818,0.495,1.010,0.733,0.323,0.579,0.535,��쓌,3.7,�L
2023/08/08,08:40,0.543,0.819,0.496,1.010,0.731,0.323,0.579,0.536,��쓌,4.1,�L
2023/08/08,08:50,0.544,0.819,0.496,1.010,0.733,0.324,0.578,0.536,��쓌,3.4,�L
2023/08/08,09:00,0.543,0.819,0.497,1.011,0.734,0.323,0.580,0.538,��쓌,2.9,��
2023/08/08,09:10,0.545,0.817,0.497,1.011,0.735,0.325,0.580,0.536,�쓌,2.9,��
2023/08/08,09:20,0.544,0.818,0.498,1.011,0.734,0.324,0.579,0.534,���쓌,3.0,��
2023/08/08,09:30,0.545,0.822,0.498,1.010,0.735,0.324,0.579,0.535,�쓌,3.2,��
2023/08/08,09:40,0.545,0.820,0.499,1.009,0.735,0.325,0.580,0.534,��쓌,2.9,��
2023/08/08,09:50,0.545,0.821,0.498,1.012,0.734,0.324,0.581,0.535,�쓌,3.0,��
2023/08/08,10:00,0.544,0.822,0.497,1.011,0.736,0.325,0.581,0.536,�쓌,3.6,��
2023/08/08,10:10,0.548,0.824,0.499,1.010,0.735,0.323,0.581,0.534,���쓌,4.1,��
2023/08/08,10:20,0.547,0.822,0.500,1.012,0.736,0.324,0.580,0.536,���쓌,3.0,�L
2023/08/08,10:30,0.547,0.824,0.499,1.011,0.738,0.325,0.581,0.536,���쓌,3.7,��
2023/08/08,10:40,0.547,0.825,0.501,1.011,0.737,0.326,0.580,0.535,���쓌,3.3,��
2023/08/08,10:50,0.548,0.824,0.502,1.013,0.737,0.325,0.580,0.535,���쓌,4.1,��
2023/08/08,11:00,0.547,0.824,0.501,1.011,0.738,0.326,0.579,0.537,�쓌,3.4,��
2023/08/08,11:10,0.548,0.824,0.501,1.013,0.741,0.326,0.579,0.535,���쓌,3.5,��
2023/08/08,11:20,0.547,0.827,0.502,1.011,0.738,0.324,0.582,0.536,�쓌,3.8,��
2023/08/08,11:30,0.548,0.828,0.502,1.008,0.740,0.325,0.581,0.537,���쓌,3.5,��
2023/08/08,11:40,0.548,0.827,0.503,1.013,0.741,0.325,0.581,0.536,���쓌,2.5,��
2023/08/08,11:50,0.547,0.827,0.504,1.011,0.740,0.326,0.580,0.537,���쓌,3.1,��
2023/08/08,12:00,0.549,0.829,0.502,1.012,0.741,0.326,0.581,0.536,���쓌,2.6,��
2023/08/08,12:10,0.548,0.831,0.504,1.013,0.741,0.326,0.581,0.537,���쓌,2.3,��
2023/08/08,12:20,0.548,0.830,0.505,1.013,0.741,0.327,0.582,0.537,���쓌,2.6,��
2023/08/08,12:30,0.551,0.831,0.503,1.012,0.742,0.326,0.582,0.536,��,1.5,��
2023/08/08,12:40,0.550,0.831,0.504,1.012,0.744,0.326,0.582,0.539,��,2.3,��
2023/08/08,12:50,0.550,0.830,0.504,1.013,0.743,0.325,0.581,0.539,��,2.3,��
2023/08/08,13:00,0.550,0.832,0.505,1.012,0.743,0.327,0.581,0.539,��,3.1,��
2023/08/08,13:10,0.550,0.830,0.504,1.014,0.745,0.324,0.582,0.539,���쓌,2.6,��
2023/08/08,13:20,0.551,0.831,0.505,1.014,0.744,0.328,0.580,0.542,���쓌,2.3,��
2023/08/08,13:30,0.551,0.832,0.505,1.012,0.743,0.325,0.581,0.540,���k��,2.2,��
2023/08/08,13:40,0.552,0.832,0.505,1.015,0.743,0.327,0.584,0.538,��,2.3,��
2023/08/08,13:50,0.553,0.833,0.504,1.012,0.744,0.327,0.584,0.540,���k��,2.0,��
2023/08/08,14:00,0.553,0.832,0.505,1.016,0.745,0.327,0.584,0.539,��,2.8,��
2023/08/08,14:10,0.552,0.832,0.506,1.017,0.745,0.327,0.584,0.538,���k��,2.6,��
2023/08/08,14:20,0.552,0.833,0.505,1.017,0.745,0.325,0.585,0.540,���쓌,2.8,��
2023/08/08,14:30,0.551,0.831,0.505,1.019,0.746,0.326,0.585,0.538,���쓌,2.3,��
2023/08/08,14:40,0.552,0.831,0.505,1.015,0.744,0.326,0.584,0.539,���쓌,2.6,��
2023/08/08,14:50,0.551,0.833,0.505,1.014,0.744,0.326,0.583,0.538,�쓌,2.0,��
2023/08/08,15:00,0.552,0.833,0.506,1.015,0.745,0.328,0.582,0.538,���쓌,2.0,��
2023/08/08,15:10,0.550,0.831,0.506,1.014,0.745,0.326,0.582,0.539,�쓌,2.8,��
2023/08/08,15:20,0.551,0.833,0.508,1.014,0.746,0.327,0.582,0.537,�쓌,3.0,��
2023/08/08,15:30,0.553,0.834,0.507,1.017,0.747,0.327,0.583,0.540,�쓌,2.9,��
2023/08/08,15:40,0.550,0.833,0.506,1.015,0.747,0.326,0.583,0.538,�쓌,2.6,��
2023/08/08,15:50,0.550,0.836,0.508,1.016,0.747,0.326,0.583,0.537,�쓌,4.3,��
2023/08/08,16:00,0.550,0.833,0.507,1.016,0.747,0.328,0.584,0.538,��쓌,4.5,��
2023/08/08,16:10,0.552,0.833,0.506,1.018,0.747,0.327,0.583,0.537,��쓌,5.4,��
2023/08/08,16:20,0.551,0.833,0.507,1.017,0.746,0.327,0.583,0.536,��쓌,4.5,��
2023/08/08,16:30,0.550,0.835,0.507,1.018,0.746,0.326,0.583,0.536,��쓌,5.0,��
2023/08/08,16:40,0.553,0.835,0.507,1.018,0.747,0.327,0.583,0.538,��,5.6,��
2023/08/08,16:50,0.551,0.835,0.505,1.020,0.745,0.327,0.582,0.538,��쓌,5.7,��
2023/08/08,17:00,0.551,0.833,0.506,1.020,0.747,0.326,0.583,0.539,��쓌,6.0,��
2023/08/08,17:10,0.550,0.834,0.507,1.018,0.747,0.326,0.583,0.538,��쓌,6.8,��
2023/08/08,17:20,0.551,0.834,0.507,1.020,0.746,0.327,0.583,0.538,��쓌,7.0,��
2023/08/08,17:30,0.551,0.834,0.506,1.018,0.746,0.327,0.581,0.537,��,7.4,��
2023/08/08,17:40,0.549,0.833,0.505,1.018,0.744,0.326,0.583,0.538,��쓌,6.6,��
2023/08/08,17:50,0.550,0.833,0.506,1.017,0.745,0.326,0.583,0.539,��,7.2,��
2023/08/08,18:00,0.550,0.834,0.505,1.018,0.745,0.326,0.583,0.539,��쓌,7.3,��
2023/08/08,18:10,0.550,0.833,0.505,1.019,0.745,0.327,0.582,0.535,��쓌,7.1,��
2023/08/08,18:20,0.550,0.832,0.507,1.019,0.747,0.326,0.584,0.538,��쓌,7.1,��
2023/08/08,18:30,0.549,0.831,0.505,1.020,0.746,0.327,0.580,0.537,��,6.8,��
2023/08/08,18:40,0.550,0.831,0.505,1.018,0.746,0.327,0.583,0.537,��쓌,6.9,��
2023/08/08,18:50,0.549,0.834,0.506,1.020,0.746,0.326,0.583,0.537,��,5.8,��
2023/08/08,19:00,0.550,0.833,0.507,1.020,0.745,0.328,0.583,0.538,��쓌,6.8,��
2023/08/08,19:10,0.550,0.833,0.504,1.017,0.746,0.327,0.583,0.537,��쓌,5.7,��
2023/08/08,19:20,0.549,0.833,0.506,1.016,0.746,0.328,0.584,0.539,��쓌,7.2,��
2023/08/08,19:30,0.549,0.834,0.505,1.017,0.747,0.326,0.583,0.538,��,6.5,��
2023/08/08,19:40,0.550,0.835,0.504,1.019,0.747,0.328,0.583,0.538,��쓌,9.7,��
2023/08/08,19:50,0.552,0.836,0.507,1.020,0.747,0.328,0.583,0.537,��,7.7,��
2023/08/08,20:00,0.550,0.832,0.506,1.017,0.747,0.329,0.582,0.538,��,7.4,��
2023/08/08,20:10,0.550,0.834,0.506,1.018,0.746,0.327,0.582,0.536,��,7.0,��
2023/08/08,20:20,0.551,0.834,0.506,1.020,0.745,0.328,0.582,0.538,��,6.5,��
2023/08/08,20:30,0.551,0.835,0.505,1.020,0.748,0.327,0.583,0.537,��,6.2,��
2023/08/08,20:40,0.549,0.834,0.507,1.019,0.749,0.330,0.583,0.540,��,6.7,��
2023/08/08,20:50,0.549,0.834,0.506,1.020,0.747,0.328,0.582,0.538,��,6.5,�L
2023/08/08,21:00,0.550,0.833,0.506,1.017,0.748,0.327,0.582,0.537,��,7.4,�L
2023/08/08,21:10,0.546,0.827,0.506,1.019,0.747,0.327,0.581,0.536,��,7.9,�L
2023/08/08,21:20,0.546,0.828,0.503,1.018,0.746,0.327,0.581,0.536,��,7.1,��
2023/08/08,21:30,0.546,0.827,0.503,1.019,0.748,0.328,0.580,0.536,��,6.6,��
2023/08/08,21:40,0.545,0.828,0.505,1.018,0.746,0.328,0.580,0.535,��,7.3,��
2023/08/08,21:50,0.547,0.828,0.503,1.021,0.747,0.326,0.580,0.536,��,8.4,��
2023/08/08,22:00,0.545,0.830,0.505,1.018,0.747,0.327,0.579,0.536,��,9.1,��
2023/08/08,22:10,0.546,0.828,0.503,1.019,0.745,0.329,0.580,0.536,��,8.5,��
2023/08/08,22:20,0.546,0.826,0.504,1.018,0.747,0.327,0.580,0.536,��,7.8,�L
2023/08/08,22:30,0.546,0.829,0.506,1.018,0.747,0.328,0.581,0.537,��,7.9,��
2023/08/08,22:40,0.544,0.828,0.503,1.018,0.744,0.328,0.582,0.536,��,7.9,�L
2023/08/08,22:50,0.546,0.827,0.504,1.018,0.749,0.326,0.581,0.535,��,9.1,�L
2023/08/08,23:00,0.547,0.827,0.503,1.018,0.746,0.327,0.581,0.537,��,8.3,�L
2023/08/08,23:10,0.547,0.827,0.504,1.018,0.746,0.326,0.583,0.536,��,8.1,��
2023/08/08,23:20,0.545,0.827,0.505,1.019,0.747,0.327,0.582,0.536,��쓌,9.8,��
2023/08/08,23:30,0.547,0.829,0.504,1.019,0.745,0.327,0.582,0.536,��,7.6,��
2023/08/08,23:40,0.547,0.827,0.504,1.017,0.747,0.327,0.581,0.535,��,7.9,��
2023/08/08,23:50,0.546,0.829,0.504,1.017,0.745,0.326,0.581,0.537,��,7.9,��
